User: anonymous   Login
Location: Unspecified
(0.0000°N, 0.0000°E)
Time: 07:58:49
(UTC+02:00)
Language:

Orbus 21S - Orbit

View from above orbital plane
View from above orbital plane
View from above satellite
View from above satellite

Ground track
Ground track

The orbit data is extracted from the following two-line orbital elements,

1 20669U 90056C   15147.14824272  .00001842  00000-0  91728-3 0  9996
2 20669 024.5079 040.4114 7131930 203.5479 354.2901 02.45725433208818
Epoch (UTC): 27 May 2015 03:33:28
Eccentricity: 0.7131930
inclination: 24.5079°
perigee height: 275 km
apogee height: 33363 km
right ascension of ascending node: 40.4114°
argument of perigee: 203.5479°
revolutions per day: 2.45725433
mean anomaly at epoch: 354.2901°
orbit number at epoch: 20881

The dashed part of the orbit path shows where the satellite is in the earth's shadow,  

DLR